Regional Weather Roundup
Issued by NWS

Home | Current Version | Previous Version | Text Only | Print | Product List | Glossary Off
Versions: 1 2 3 4 5 6 7 8 9 10 11 12 13 14 15 16 17 18 19 20 21 22 23 24 25 26 27 28 29 30 31 32 33 34 35 36 37 38 39 40 41 42 43 44 45 46 47 48 49 50

000
ASUS43 KMKX 181521
RWRWI

WISCONSIN REGIONAL WEATHER ROUNDUP
NATIONAL WEATHER SERVICE MILWAUKEE/SULLIVAN WI
900 AM CST THU DEC 18 2014

NOTE: "FAIR" INDICATES FEW OR NO CLOUDS BELOW 12,000 FEET WITH NO
SIGNIFICANT WEATHER AND/OR OBSTRUCTIONS TO VISIBILITY.

WIZ001-002-006>008-014>016-023>028-181600-
NORTHWEST WISCONSIN

CITY           SKY/WX    TMP DP  RH WIND       PRES   REMARKS
SUPERIOR ARPT  CLOUDY    21  19  91 CALM      30.32S
ASHLAND        PTCLDY    22  17  81 E3        30.31F
HAYWARD        CLOUDY    22  17  81 CALM      30.27S
SIREN          CLOUDY    20  18  91 CALM      30.30R
CUMBERLAND     CLOUDY    21  18  86 SE3       30.27R
RICE LAKE      CLOUDY    22  19  86 E3        30.30R
CHETEK         CLOUDY    22  19  88 NE5       30.29R WCI  16
LADYSMITH      CLOUDY    24  20  85 E3        30.29R
EAU CLAIRE     CLOUDY    23  18  81 CALM      30.29S
MENOMONIE      CLOUDY    24  19  83 CALM      30.30S
NEW RICHMOND   CLOUDY    22  19  91 E5        30.29S WCI  15
OSCEOLA        CLOUDY    21  18  88 CALM      30.33S
$$

WIZ003>005-009-010-017-018-181600-
NORTH CENTRAL WISCONSIN

CITY           SKY/WX    TMP DP  RH WIND       PRES   REMARKS
MANITOWISH WTR CLOUDY    19  17  88 E6        30.24S WCI  11
ARBOR VITAE    CLOUDY    22  18  86 E3        30.24S
WOODRUFF       CLOUDY    22  18  86 E3        30.24S
RHINELANDER    CLOUDY    20  17  88 NE6       30.24R WCI  12
EAGLE RIVER    CLOUDY    20  15  79 E9        30.24S WCI  10
LAND O LAKES   CLOUDY    21  17  84 NE7       30.25S WCI  12
PHILLIPS       CLOUDY    19  16  87 E7        30.25R WCI  10
TOMAHAWK       CLOUDY    20  17  86 CALM      30.25S
MEDFORD        CLOUDY    22  18  87 E6        30.25R WCI  14
MERRILL        CLOUDY    22  19  87 E7        30.25S WCI  14
$$

WIZ029-030-035-036-043>047-181600-
CENTRAL WISCONSIN

CITY           SKY/WX    TMP DP  RH WIND       PRES   REMARKS
WAUSAU         CLOUDY    23  18  81 E7        30.25R WCI  15
MOSINEE        CLOUDY    25  21  86 E5        30.27R WCI  19
MARSHFIELD     CLOUDY    24  19  81 NE7       30.26R WCI  16
STEVENS POINT  CLOUDY    23  18  81 NE5       30.28R WCI  17
WAUPACA        CLOUDY    28  22  76 N8        30.29R WCI  20
WAUTOMA        CLOUDY    25  21  84 SW5       30.29R WCI  19
WISC RAPIDS    CLOUDY    24  20  84 CALM      30.29R
CAMP DOUGLAS   CLOUDY    21  21 100 W2        30.29R
$$

WIZ011>013-019>022-031-037>040-048>050-181600-
NORTHEAST WISCONSIN

CITY           SKY/WX    TMP DP  RH WIND       PRES   REMARKS
ANTIGO         CLOUDY    21  18  88 NE7       30.24S WCI  12
SHAWANO        CLOUDY    28  21  76 N5        30.29R WCI  23
OCONTO         CLOUDY    26  20  79 N12       30.28S WCI  15
STURGEON BAY   CLOUDY    25  18  74 NE10      30.28R WCI  15
GREEN BAY      CLOUDY    27  20  75 N7        30.28R WCI  19
MANITOWOC      CLOUDY    28  23  81 N7        30.28R WCI  21
APPLETON       CLOUDY    27  19  74 NE8       30.27R WCI  18
CLINTONVILLE   CLOUDY    27  19  74 E12       30.29R WCI  16
OSHKOSH        CLOUDY    27  21  78 NE8       30.28R WCI  19
$$

WIZ032>034-041-042-053>061-181600-
SOUTHWEST WISCONSIN

CITY           SKY/WX    TMP DP  RH WIND       PRES   REMARKS
LA CROSSE      CLOUDY    23  16  74 CALM      30.31S
SPARTA         CLOUDY    22  17  83 CALM      30.31R
VIROQUA        CLOUDY    21  19  91 CALM      30.26S
BOSCOBEL       MOSUNNY   16  12  84 CALM      30.32R
PRAIRIE DU CHI SUNNY     18  13  82 CALM      30.32R
PLATTEVILLE    MOSUNNY   17  15  89 CALM      30.29S
$$

WIZ056-057-062-063-064-067-068-181600-
SOUTH CENTRAL WISCONSIN

CITY           SKY/WX    TMP DP  RH WIND       PRES   REMARKS
REEDSBURG      CLOUDY    23  18  83 CALM      30.29R
BARABOO/DELLS  CLOUDY    22  18  81 CALM      30.28R
LONE ROCK      CLOUDY    22  15  75 CALM      30.31R
MINERAL POINT  MOSUNNY   19  16  86 CALM      30.27R
MADISON        CLOUDY    22  18  85 CALM      30.28S
MIDDLETON      CLOUDY    23  19  83 CALM      30.28S
WATERTOWN      CLOUDY    23  22  94 W3        30.28S
MONROE         CLOUDY    19  18  93 CALM      30.27S
JANESVILLE     CLOUDY    21  18  86 W6        30.29R WCI  14
$$

WIZ051-052-058>065-066-070>072-181600-
SOUTHEAST WISCONSIN

CITY           SKY/WX    TMP DP  RH WIND       PRES   REMARKS
MILWAUKEE      CLOUDY    24  18  77 NW7       30.28R WCI  16
WAUKESHA         N/A     21  19  93 W5        30.29R FOG     WCI  15
MILWAUKEE/TIMM CLOUDY    25  21  86 CALM      30.28R
RACINE         CLOUDY    21  16  81 W8        30.29R WCI  11
BURLINGTON     CLOUDY    19  16  90 CALM      30.28S
KENOSHA        MOSUNNY   21  17  84 W5        30.28R WCI  15
FOND DU LAC    CLOUDY    27  22  81 NW3       30.28R
SHEBOYGAN      CLOUDY    27  22  81 N7        30.27R WCI  19
WEST BEND      CLOUDY    27  21  80 CALM      30.27R
JUNEAU         CLOUDY    24  20  87 W3        30.28S
$$

LSZ147-162-181600-
LAKE SUPERIOR

STATION/POSITION TIME  TEMP    WIND        PRES    WAVE
                       AIR SEA DIR/SP/G            HT/PER
                 (UTC) (F)     (DEG/KT/KT) (MB)    (FT/S)
DEVILS ISLAND    1500   27      50/  9/ 11 1027.8F
PORT WING        1400   24     100/  3/  5 1026.4F
SAXON HARBOR     1440   19      CALM  /  4 1026.4S
$$

LMZ867-665-643>646-181600-
LAKE MICHIGAN

STATION/POSITION TIME  TEMP    WIND        PRES    WAVE
                       AIR SEA DIR/SP/G            HT/PER
                 (UTC) (F)     (DEG/KT/KT) (MB)    (FT/S)
CHAMBERS ISLAND  1400   27      10/ 14/ 19 1025.4R
NORTHPORT PIER   1400   25      30/  8/ 11 1025.1R
SISTER BAY       1443           40/  1/  5   N/A
ALGOMA LAKESHORE 1414           10/ 11/ 14   N/A
KEWAUNEE LAKESHO 1406   27     360/  7/ 11 1023.5S
SHEBOYGAN LAKESH 1500   28 34  330/  9/ 11 1026.4R
PORT WASHINGTON  1400   26     300/  5/  8 1025.7R
MILWAUKEE LAKESH 1500   26     300/  9/ 11   N/A
KENOSHA   LAKESH 1500   21     260/  9/ 11 1025.4S
$$

TC  - TEMPERATURE IN CELSIUS
VSB - VISIBILITY IN STATUTE MILES
WCI - WIND CHILL INDEX
HX  - HEAT INDEX



USA.gov is the U.S. government's official web portal to all federal, state and local government web resources and services.